Weather History for KMPO - March, 2014

Change the Weather History Date:

Saturday, March 8, 2014

  Actual Average Record
Temperature  
Mean Temperature 30 °F 31 °F  
Max Temperature 46 °F 39 °F 71 °F (2000)
Min Temperature 14 °F 22 °F -2 °F (1990)
Degree Days  
Heating Degree Days 35 34  
Month to date heating degree days 368 281  
Since 1 July heating degree days 5795 5404  
Cooling Degree Days 0 0  
Month to date cooling degree days 0 0  
Year to date cooling degree days 0 0  
Moisture  
Dew Point 24 °F    
Average Humidity 66    
Maximum Humidity 91    
Minimum Humidity 40    
Precipitation  
Precipitation T in 0.11 in 1.80 in (1931)
Month to date precipitation T 0.64  
Year to date precipitation 6.39 5.90  
Sea Level Pressure  
Sea Level Pressure 29.87 in    
Wind  
Wind Speed 10 mph (NW)    
Max Wind Speed 24 mph    
Max Gust Speed 31 mph    
Visibility 8 miles    
Events Snow    
T = Trace of Precipitation, MM = Missing Value Source: NWS Daily Summary

Daily Weather History Graph

Daily Weather History Graph

Search for Another Location

Airport or City:

Trip Planner

Search our weather history database for the weather conditions in past years. The results will help you decide how hot, cold, wet, or windy it might be!

Date:

Astronomy

Mar. 08, 2014 Rise Set
Actual Time 6:24 AM EST 6:00 PM EST
Civil Twilight 5:57 AM EST 6:27 PM EST
Nautical Twilight 5:25 AM EST 6:59 PM EST
Astronomical Twilight 4:53 AM EST 7:31 PM EST
Moon 11:00 AM EST (3/8) 12:59 AM EST (3/8)
Length of Visible Light 12h 30m
Length of Day
11h 35m
First Quarter, 51% of the Moon is Illuminated
Mar 8
First Quarter
Mar 16
Full
Mar 23
Last Quarter
Mar 30
New
Apr 7
First Quarter

Hourly Weather History & Observations

Time (EST) Temp. Windchill Dew Point Humidity Pressure Visibility Wind Dir Wind Speed Gust Speed Precip Events Conditions
12:53 AM 16.0 °F 8.8 °F 12.9 °F 88% 29.94 in 10.0 mi NW 4.6 mph - N/A   Clear
1:53 AM 14.0 °F 3.9 °F 10.9 °F 88% 29.92 in 10.0 mi NW 6.9 mph - N/A   Clear
2:53 AM 25.0 °F 17.1 °F 19.0 °F 78% 29.88 in 10.0 mi NW 6.9 mph - N/A   Clear
3:53 AM 19.9 °F 14.9 °F 17.1 °F 89% 29.88 in 10.0 mi West 3.5 mph - N/A   Clear
4:53 AM 16.0 °F 8.8 °F 12.9 °F 88% 29.89 in 5.0 mi WNW 4.6 mph - N/A   Clear
5:53 AM 18.0 °F 9.8 °F 14.0 °F 84% 29.88 in 10.0 mi WNW 5.8 mph - N/A   Clear
6:53 AM 30.0 °F 21.1 °F 21.9 °F 72% 29.87 in 10.0 mi NW 10.4 mph - N/A   Clear
7:53 AM 34.0 °F 26.6 °F 24.1 °F 67% 29.87 in 10.0 mi NW 9.2 mph - N/A   Clear
8:53 AM 33.1 °F 24.9 °F 23.0 °F 66% 29.88 in 10.0 mi WNW 10.4 mph - N/A   Clear
9:53 AM 41.0 °F 36.4 °F 25.0 °F 53% 29.87 in 10.0 mi WNW 6.9 mph - N/A   Scattered Clouds
10:53 AM 44.1 °F 36.8 °F 21.0 °F 40% 29.87 in 10.0 mi NW 16.1 mph 21.9 mph N/A   Overcast
11:53 AM 45.0 °F 37.9 °F 23.0 °F 42% 29.87 in 10.0 mi NW 16.1 mph 29.9 mph N/A   Mostly Cloudy
12:53 PM 44.1 °F 36.8 °F 26.1 °F 49% 29.85 in 10.0 mi WNW 16.1 mph 27.6 mph N/A   Partly Cloudy
1:53 PM 45.0 °F 38.5 °F 26.1 °F 48% 29.84 in 10.0 mi NW 13.8 mph 20.7 mph N/A   Clear
2:53 PM 44.1 °F 37.4 °F 26.1 °F 49% 29.83 in 10.0 mi NNW 13.8 mph - N/A   Clear
3:53 PM 42.1 °F 34.9 °F 27.0 °F 55% 29.85 in 10.0 mi NW 13.8 mph 19.6 mph N/A   Overcast
4:53 PM 41.0 °F 34.3 °F 27.0 °F 57% 29.87 in 10.0 mi NW 11.5 mph - N/A   Overcast
5:53 PM 39.0 °F 32.3 °F 27.0 °F 62% 29.89 in 9.0 mi NW 10.4 mph - N/A   Overcast
6:29 PM 37.9 °F 30.9 °F 27.0 °F 65% 29.83 in 9.0 mi NW 10.4 mph - N/A   Mostly Cloudy
6:41 PM 37.9 °F 30.0 °F 27.0 °F 65% 29.83 in 9.0 mi NW 12.7 mph 25.3 mph N/A   Scattered Clouds
6:53 PM 37.0 °F 29.8 °F 27.0 °F 67% 29.88 in 9.0 mi NW 10.4 mph - N/A   Partly Cloudy
7:17 PM 37.0 °F 29.3 °F 27.0 °F 67% 29.84 in 8.0 mi NW 11.5 mph 19.6 mph N/A   Mostly Cloudy
7:53 PM 36.0 °F 29.0 °F 27.0 °F 70% 29.90 in 8.0 mi NW 9.2 mph - N/A   Overcast
8:53 PM 35.1 °F 25.9 °F 26.1 °F 70% 29.91 in 7.0 mi NW 13.8 mph - N/A   Overcast
9:11 PM 35.1 °F 26.9 °F 26.1 °F 70% 29.86 in 6.0 mi NW 11.5 mph - N/A   Haze
9:53 PM 34.0 °F 25.0 °F 27.0 °F 75% 29.91 in 4.0 mi NNW 12.7 mph - N/A   Haze
10:05 PM 33.1 °F 24.9 °F 27.0 °F 78% 29.87 in 4.0 mi NW 10.4 mph - N/A   Haze
10:43 PM 33.1 °F 24.4 °F 27.0 °F 78% 29.86 in 2.5 mi NW 11.5 mph - 0.00 in Snow Light Snow
10:53 PM 33.1 °F 25.5 °F 27.0 °F 78% 29.90 in 3.0 mi NW 9.2 mph - 0.00 in   Overcast
11:02 PM 33.1 °F 24.9 °F 27.0 °F 78% 29.86 in 4.0 mi NW 10.4 mph - 0.00 in   Haze
11:51 PM 32.0 °F 23.6 °F 26.6 °F 80% 29.84 in 2.0 mi NNW 10.4 mph - 0.00 in Snow Light Snow
11:53 PM 32.0 °F 24.8 °F 27.0 °F 82% 29.88 in 2.0 mi NW 8.1 mph - 0.00 in Snow Light Snow